Flag for Austria Weather past 2 weeks in Klagenfurt, Carinthia, Austria

46 °F

Light rain. Partly sunny.

Feels Like: 46 °F
Forecast: 45 / 52 °F
Wind: 2 mph from North

Location: Klagenfurt-Flughafen

Current Time: Oct 13, 2015 at 10:00:56 AM

Latest Report: Oct 13, 2015 at 9:20 AM

Visibility: 4 mi

Pressure: 30.04 "Hg

Humidity: 93%

Dew point: 45 °F

Location of KlagenfurtLocation

Historic Weather in Klagenfurt — Graph


Klagenfurt temperature yesterday

Maximum temperature yesterday: 55 °F (at 1:50 PM)
Minimum temperature yesterday: 43 °F (at 11:50 PM)
Average temperature yesterday: 49 °F

Past Weeks' High & Low Weather Summary

High64 °F (Oct 4, 2:50 PM)100% (Oct 3, 10:20 PM)30.48 "Hg (Oct 3, 10:20 PM)
Low36 °F (Sep 29, 5:20 AM)45% (Sep 29, 2:50 PM)29.77 "Hg (Oct 11, 4:50 AM)
Average52 °F85%30.14 "Hg
* Reported Sep 28 8:20 AM — Oct 13 8:50 AM, Klagenfurt, Weather by CustomWeather, © 2015

Note: Actual official high and low records may vary slightly from our data, if they occured in-between our weather recording intervals... More about our weather records


Klagenfurt weather history for previous 24 hours

Time TempWeatherWind HumidityBarometerVisibility
8:50 AM
Tue, Oct 13
46 °FLight rain. Partly sunny.2 mph93%30.04 "Hg4 mi
8:20 AM46 °FLight rain. Partly sunny.1 mph93%30.01 "Hg4 mi
7:50 AM46 °FLight rain. Passing clouds.3 mph93%30.01 "Hg4 mi
7:20 AM46 °FLight rain. Passing clouds.1 mph93%30.01 "Hg4 mi
6:50 AM46 °FLight rain. Passing clouds.1 mph87%30.01 "Hg5 mi
6:20 AM46 °FLight rain. Passing clouds.2 mph93%30.01 "Hg5 mi
5:50 AM46 °FLight rain. Passing clouds.2 mph87%30.01 "Hg5 mi
5:20 AM46 °FPassing clouds.2 mph93%30.01 "HgN/A
4:50 AM46 °FPassing clouds.2 mph87%30.01 "HgN/A
4:20 AM46 °FPassing clouds.2 mph93%30.04 "HgN/A
3:50 AM46 °FPassing clouds.1 mph87%30.04 "HgN/A
3:20 AM46 °FPassing clouds.2 mph93%30.04 "HgN/A
2:50 AM46 °FPassing clouds.1 mph93%30.04 "HgN/A
2:20 AM46 °FPassing clouds.1 mph93%30.07 "HgN/A
1:50 AM46 °FPassing clouds.1 mph93%30.04 "HgN/A
1:20 AM46 °FPassing clouds.3 mph87%30.07 "HgN/A
12:50 AM45 °FPassing clouds.1 mph93%30.04 "HgN/A
12:20 AM45 °FPassing clouds.2 mph93%30.04 "HgN/A
11:50 PM
Mon, Oct 12
43 °FPassing clouds.1 mph93%30.07 "HgN/A
11:20 PM45 °FPartly cloudy.1 mph93%30.07 "HgN/A
10:50 PM46 °FPartly cloudy.2 mph87%30.07 "HgN/A
10:20 PM46 °FPartly cloudy.2 mph87%30.07 "HgN/A
9:50 PM46 °FPassing clouds.3 mph87%30.07 "HgN/A
9:20 PM46 °FPassing clouds.2 mph87%30.04 "HgN/A
8:50 PM46 °FPassing clouds.3 mph87%30.04 "HgN/A
8:20 PM46 °FPassing clouds.3 mph87%30.04 "HgN/A
7:50 PM46 °FPassing clouds.6 mph87%30.04 "HgN/A
7:20 PM48 °FPassing clouds.7 mph82%30.04 "HgN/A
6:50 PM48 °FPassing clouds.6 mph87%30.01 "HgN/A
6:20 PM50 °FPassing clouds.6 mph82%29.98 "HgN/A
5:50 PM54 °FPassing clouds.3 mph77%29.98 "HgN/A
5:20 PM55 °FPassing clouds.5 mph72%29.98 "HgN/A
4:50 PM55 °FPassing clouds.5 mph72%29.95 "HgN/A
4:20 PM55 °FPassing clouds.6 mph72%29.95 "HgN/A
3:50 PM55 °FPassing clouds.5 mph72%29.95 "HgN/A
3:20 PM55 °FPassing clouds.5 mph72%29.95 "HgN/A
2:50 PM55 °FScattered clouds.5 mph72%29.95 "HgN/A
2:20 PM55 °FScattered clouds.3 mph72%29.98 "HgN/A
1:50 PM55 °FScattered clouds.3 mph67%29.98 "HgN/A
1:20 PM54 °FPartly sunny.2 mph72%29.98 "HgN/A
12:50 PM52 °FPartly sunny.2 mph77%29.98 "HgN/A
12:20 PM52 °FPartly sunny.3 mph77%30.01 "HgN/A
11:50 AM52 °FBroken clouds.1 mph72%30.01 "HgN/A
11:20 AM50 °FBroken clouds.1 mph76%30.01 "HgN/A
10:50 AM48 °FBroken clouds.2 mph82%30.01 "HgN/A
10:20 AM48 °FBroken clouds.1 mph76%30.01 "HgN/A
Weather by CustomWeather, © 2015

See weather overviewHow to use our weather pages